Location: Newark
(50.5833°N, 5.7333°E)
Time: 08:56:56
(UTC+00:00)

ISS - Visible Passes

Search period start: 18 September 2020 00:00
Search period end: 28 September 2020 00:00
Orbit: 419 x 420 km, 51.6° (Epoch: 18 September)

Date Brightness Start Highest point End Pass type
(mag) Time Alt. Az. Time Alt. Az. Time Alt. Az.
18 Sep -2.6 19:39:04 10° SW 19:41:14 30° SSW 19:41:14 30° SSW visible
19 Sep -2.7 18:52:01 10° SSW 18:54:57 28° SSE 18:56:09 22° ESE visible
19 Sep -1.2 20:28:09 10° WSW 20:29:08 18° WSW 20:29:08 18° WSW visible
20 Sep -3.7 19:40:47 10° WSW 19:43:52 67° SSW 19:43:52 67° SSW visible
21 Sep -3.6 18:53:28 10° SW 18:56:46 55° SSE 18:58:29 25° E visible
21 Sep -1.3 20:30:12 10° W 20:31:27 21° W 20:31:27 21° W visible
22 Sep -3.1 18:06:14 10° SW 18:09:25 40° SSE 18:12:37 10° E visible
22 Sep -3.7 19:42:45 10° W 19:45:57 75° NW 19:45:57 75° NW visible
23 Sep -3.8 18:55:18 10° WSW 18:58:40 89° SSE 19:00:22 27° ENE visible
23 Sep -1.1 20:32:13 10° W 20:33:20 19° WNW 20:33:20 19° WNW visible
24 Sep -3.7 18:07:53 10° WSW 18:11:14 73° SSE 18:14:37 10° ENE visible
24 Sep -3.3 19:44:44 10° W 19:47:42 61° NW 19:47:42 61° NW visible
25 Sep -3.7 18:57:15 10° W 19:00:37 73° N 19:02:01 32° ENE visible
25 Sep -0.8 20:34:08 10° WNW 20:34:58 16° WNW 20:34:58 16° WNW visible
26 Sep -3.7 18:09:44 10° W 18:13:08 79° N 18:16:19 11° ENE visible
26 Sep -2.9 19:46:40 10° WNW 19:49:16 50° WNW 19:49:16 50° WNW visible
27 Sep -3.7 18:59:10 10° W 19:02:33 75° N 19:03:33 42° E visible
27 Sep -0.6 20:36:02 10° W 20:36:30 13° W 20:36:30 13° W visible
